Regional Weather Roundup
Issued by NWS

Home | Current Version | Previous Version | Text Only | Print | Product List | Glossary On
Versions: 1 2 3 4 5 6 7 8 9 10 11 12 13 14 15 16 17 18 19 20 21 22 23 24 25 26 27 28 29 30 31 32 33 34 35 36 37 38 39 40 41 42 43 44 45 46 47 48 49 50
000
ASUS45 KABQ 232310
RWRNM
WEATHER ROUNDUP FOR NEW MEXICO
NATIONAL WEATHER SERVICE ALBUQUERQUE NM
500 PM MDT WED APR 23 2014

NOTE: "FAIR" MEANS FEW OR NO CLOUDS BELOW 12,000 FEET AGL WITH NO
       SIGNIFICANT WEATHER OR OBSTRUCTIONS TO VISION.

      THIS PRODUCT IS RELEASED AS TWO VERSIONS.  ONE VERSION NEAR
      THE TOP OF THE HOUR CONTAINING PRELIMINARY DATA FROM ALBUQUERQUE
      AND OTHER STATIONS.  A FINAL VERSION WITH ADDITIONAL DATA IS
      ISSUED ABOUT 10 MINUTES AFTER THE HOUR.

NMZ501-503-504-510>518-240000-
NORTHWEST PLATEAU/NORTHCENTRAL MOUNTAINS

CITY           SKY/WX    TMP DP  RH WIND       PRES   REMARKS
FARMINGTON     SUNNY     63   9  12 W18G30    29.85R
LOS ALAMOS     CLOUDY    56  21  25 SW23G31   29.87R
SANTA FE       CLOUDY    64  15  15 W21G32    29.78S
TAOS           PTSUNNY   63  18  17 W25G37    29.82S
ANGEL FIRE     CLOUDY    51  23  33 SW20G37   29.89R

$$
NMZ402-403-502-505>509-240000-
WESTCENTRAL MOUNTAINS/SOUTHWEST MOUNTAINS

CITY           SKY/WX    TMP DP  RH WIND       PRES   REMARKS
GALLUP         PTSUNNY   63   7  11 W26       29.90S
GRANTS         CLOUDY    64  13  14 W15G30    29.89R
SILVER CITY    SUNNY     73  21  14 W25G36    29.87F

$$
NMZ407-409-411-412-240000-
SOUTHERN DESERTS

CITY           SKY/WX    TMP DP  RH WIND       PRES   REMARKS
LORDSBURG      FAIR      79  25  13 W28G37    29.82S
DEMING         SUNNY     83  19   9 W22G35    29.78F
LAS CRUCES     SUNNY     82  19  10 W25G31    29.80S
HOLLOMAN AFB   SUNNY     83  13   7 SW20G29   29.74F
ALAMOGORDO     SUNNY     82  14   7 SW26G37   29.76F
T OR C         SUNNY     79  13   8 W26G37    29.76S

$$
NMZ519>523-240000-
CENTRAL VALLEYS/CENTRAL HIGHLANDS

CITY           SKY/WX    TMP DP  RH WIND       PRES   REMARKS
ALBUQUERQUE    CLOUDY    72  14  11 W26G46    29.75F
DOUBLE EAGLE   PTSUNNY   70  16  12 W26G41    29.78S
MORIARTY ARPT  FAIR      66  19  16 W32G39    29.81R
CLINES CORNERS MOSUNNY   65  15  14 W32G41    29.78F
BELEN          MOCLDY    73  20  14 S17G36    29.74S
SOCORRO        FAIR      81  15   8 W18G28    29.73R

$$
NMZ524>526-539-540-240000-
SOUTHCENTRAL MOUNTAINS

CITY           SKY/WX    TMP DP  RH WIND       PRES   REMARKS
RUIDOSO        SUNNY     68  12  11 SW25G39   29.86F

$$
NMZ527>531-240000-
NORTHEAST HIGHLANDS/NORTHEAST PLAINS

CITY           SKY/WX    TMP DP  RH WIND       PRES   REMARKS
LAS VEGAS      MOSUNNY   68  15  13 W31G40    29.75F
RATON          MOSUNNY   70  19  14 SW25G33   29.67F
CLAYTON        SUNNY     80  15   8 SW22G41   29.59F

$$
NMZ532>537-240000-
EASTCENTRAL PLAINS

CITY           SKY/WX    TMP DP  RH WIND       PRES   REMARKS
TUCUMCARI      SUNNY     87  18   8 SW29G35   29.58F
CANNON AFB     SUNNY     84   7   5 SW28G35   29.65S
CLOVIS AIRPORT SUNNY     84  23  10 SW25G37   29.66F

$$
NMZ028-029-538-240000-
SOUTHEAST PLAINS

CITY           SKY/WX    TMP DP  RH WIND       PRES   REMARKS
ROSWELL        SUNNY     89  13   6 SW28G41   29.62F
ARTESIA        SUNNY     84  18   8 SW24G38   29.68F
CARLSBAD       PTSUNNY   89  16   7 SW25      29.68F
HOBBS          SUNNY     86  18   8 SW25G31   29.71F


$$



USA.gov is the U.S. government's official web portal to all federal, state and local government web resources and services.